Regional Weather Roundup
Issued by NWS Columbia, SC

Home | Current Version | Previous Version | Text Only | Print | Product List | Glossary On
Versions: 1 2 3 4 5 6 7 8 9 10 11 12 13 14 15 16 17 18 19 20 21 22 23 24 25 26 27 28 29 30 31 32 33 34 35 36 37 38 39 40 41 42 43 44 45 46 47 48 49 50
751
ASUS42 KCAE 090410
RWRCAE
REGIONAL WEATHER ROUNDUP
NATIONAL WEATHER SERVICE COLUMBIA SC
1100 PM EST MON FEB 08 2016

NOTE: "FAIR" INDICATES FEW OR NO CLOUDS BELOW 12,000 FEET WITH NO
SIGNIFICANT WEATHER AND/OR OBSTRUCTIONS TO VISIBILITY.

NOT ALL STATIONS ARE QUALITY CONTROLLED BY THE NATIONAL
WEATHER SERVICE. USE DATA WITH CAUTION...ESPECIALLY
DEWPOINT OBSERVATIONS.

SCZ001>056-GAZ040-063>065-077-090500-
...UPSTATE SOUTH CAROLINA...

CITY           SKY/WX    TMP DP  RH WIND       PRES   REMARKS
ANDERSON       MOCLDY    40  22  48 W9        29.72F WCI  34
LIBERTY        PTCLDY    38  22  51 W10G18    29.69F WCI  31
SPARTANBURG    CLEAR     37  23  56 W6        29.68S WCI  33
CLEMSON        CLOUDY    41  23  48 W22G30    29.73S
GREENVILLE     CLEAR     39  22  50 W3        29.69F
GREENWOOD      CLEAR     39  23  52 W7        29.73S WCI  34
GREER          CLEAR     39  21  48 W9        29.68S WCI  33
ROCK HILL      CLOUDY    40  28  62 W5        29.67S
LAURENS        CLEAR     39  25  56 W7        29.70S WCI  34


...CENTRAL SOUTH CAROLINA...

CITY           SKY/WX    TMP DP  RH WIND       PRES   REMARKS
COLUMBIA APT   CLEAR     37  29  72 W6        29.71S WCI  32
COLUMBIA OWENS CLEAR     40  32  73 CALM      29.72F
MCENTIRE ANGB  PTCLDY    38  33  80 W8        29.71S WCI  32
ORANGEBURG     CLEAR     44  35  70 W9        29.74R
SUMTER SHAW    CLEAR     41  35  80 W9        29.68S
NEWBERRY       CLEAR     41  27  56 W8        29.73S
AIKEN          FAIR      41  21  45 W10       29.76S
BARNWELL       FAIR      43  34  70 SW6       29.76S
MANNING        FAIR      43  37  81 SW5       29.71R
CAMDEN         FAIR      39  39 100 SW7       29.69F WCI  34
LANCASTER        N/A     36  32  87 CALM      29.68S
WINNSBORO      CLEAR     37  32  81 W6        29.69S WCI  33


...EASTERN AND COASTAL SOUTH CAROLINA...

CITY           SKY/WX    TMP DP  RH WIND       PRES   REMARKS
MYRTLE BEACH   CLOUDY    46  39  76 SW6       29.70F
N MYRTLE BCH   CLOUDY    46  42  86 SW7       29.67F
CONWAY         CLOUDY    43  43 100 CALM      29.67F FOG
MARION         CLOUDY    43  41  93 SW6       29.68S
HARTSVILLE     FAIR      37  36  93 SW5       29.66F WCI  34
FLORENCE       CLOUDY    42  40  92 SW6       29.67F
DARLINGTON     CLEAR     39  34  81 SW7       29.67F WCI  34
CHARLESTON APT CLOUDY    46  42  86 W8        29.73R
MOUNT PLEASANT MOCLDY    45  43  93 CALM      29.72S
WALTERBORO     PTCLDY    45  43  93 W6        29.76R
BEAUFORT       PTCLDY    45  40  82 W10       29.75F


...EASTERN GEORGIA...

CITY           SKY/WX    TMP DP  RH WIND       PRES   REMARKS
AUGUSTA BUSH F CLEAR     37  29  72 W6        29.77R WCI  32
AUGUSTA DANIEL CLEAR     45  21  38 W8        29.76R
THOMSON        CLEAR     43  27  54 W6        29.81S
WASHINGTON     FAIR      43  28  56 W8        29.76S
CLAXTON        FAIR      42  40  93 SW5       29.80R
SYLVANIA       CLEAR     41  39  91 NW6       29.79S
STATESBORO     CLEAR     46  31  56 W6        29.79S
SAVANNAH       PTCLDY    43  40  89 W8        29.78S


...SOUTHERN NORTH CAROLINA...

CITY           SKY/WX    TMP DP  RH WIND       PRES   REMARKS
CHARLOTTE      CLOUDY    39  33  79 N5        29.67R
MONROE         MOCLDY    36  31  82 NW3       29.65S
WADESBORO      CLEAR     36  34  95 CALM      29.66F FOG
ROCKINGHAM     PTCLDY    37  37  97 SW6       29.66F WCI  33
RUTHERFORDTON  CLEAR     36  22  56 CALM      29.67S
ASHEVILLE      FLURRIES  33  23  66 N8        29.65F WCI  26

$$




USA.gov is the U.S. government's official web portal to all federal, state and local government web resources and services.